Regional Weather Roundup
Issued by NWS Newport/Morehead, NC

Current Version | Previous Version | Text Only | Print | Product List | Glossary Off
Versions: 1 2 3 4 5 6 7 8 9 10 11 12 13 14 15 16 17 18 19 20 21 22 23 24 25 26 27 28 29 30 31 32 33 34 35 36 37 38 39 40 41 42 43 44 45 46 47 48 49 50
213 ASUS42 KMHX 211614 RWRMHX WEATHER ROUNDUP FOR EASTERN NORTH CAROLINA NATIONAL WEATHER SERVICE NEWPORT/MOREHEAD CITY NC 1200 PM EDT MON AUG 21 2017 NOTE: "FAIR" INDICATES FEW OR NO CLOUDS BELOW 12,000 FEET WITH NO SIGNIFICANT WEATHER AND/OR OBSTRUCTIONS TO VISIBILITY NCZ015>017-031-032-045>047-102-103-211700- NORTH COAST CITY SKY/WX TMP DP RH WIND PRES REMARKS EDENTON SUNNY 86 74 67 CALM 30.24S ELIZABETH CITY MOSUNNY 86 76 71 E7 30.23S KITTY HAWK SUNNY 83 74 74 CALM 30.23R MANTEO SUNNY 84 74 73 E6 30.24R $$ NCZ045>047-081-094-103-104-211700- CENTRAL COAST CITY SKY/WX TMP DP RH WIND PRES REMARKS FRISCO CLOUDY 88 78 72 SE9 30.22S HX 101 $$ NCZ095-097-098-100-101-211700- SOUTHERN COAST CITY SKY/WX TMP DP RH WIND PRES REMARKS BEAUFORT CLOUDY 83 79 88 E9 30.22S CEDAR ISLAND NOT AVBL JACKSONVILLE PTSUNNY 86 77 74 E6 30.21R PINEY ISLAND PTSUNNY N/A N/A N/A E10 30.22R WILMINGTON CLOUDY 83 76 79 E9 30.21S $$ NCZ011>013-027>030-043-044-078>080-089-090>093-098-211700- COASTAL PLAIN CITY SKY/WX TMP DP RH WIND PRES REMARKS AHOSKIE N/A 82 74 75 S3 30.23S CLINTON SUNNY 86 76 71 E3 30.22S ELIZABETHTOWN NOT AVBL GOLDSBORO MOSUNNY 87 77 72 E8 30.21F GREENVILLE MOSUNNY 86 73 66 S3 30.24S HAVELOCK PTSUNNY 86 76 71 NE12 30.23R KENANSVILLE MOSUNNY 84 75 74 SE6 30.22F KINSTON MOSUNNY 86 75 70 SE5 30.23 NEW BERN SUNNY 86 76 71 VRB7 30.23S RICHLANDS CLOUDY 86 75 69 NE8 30.22S ROCKY MOUNT SUNNY 86 74 67 VRB3 30.23S WASHINGTON MOSUNNY 85 74 68 NE6 30.23S WHITEVILLE MOSUNNY 87 76 69 E7 30.20S $$ AMZ130-135-150-152-154-156-158-170-250-252-270-ANZ085-086-088-633-658-670-211700- MARINE OBSERVATIONS STATION/POSITION TIME TEMP WIND PRES WAVE SWELL AIR SEA DIR/SP/G HT/PER HT/PER (UTC) (F) (DEG/KT/KT) (MB) (FT/S) (FT/S) CHESAPEAKE LIGHT NOT AVBL 64 E VA BEACH 1550 79 79 130/ 10/ 10 1024.5 2/ 8 2/ 8 DUCK 1548 83 80 110/ 5/ 5 1023.5 2 E DUCK 1600 81 N/A 2/ 8 OREGON INLET 1536 81 77 70/ 6/ 8 1023.5 13E OREGON INLT 1548 80 N/A 2/ 8 2/ 8 HATTERAS CG 1548 84 79 100/ 7/ 10 1023.5 DIAMOND BUOY 1550 84 85 110/ 10/ 12 1023.2 2/ 9 2/ 9 CAPE LOOKOUT 1600 80 140/ 13/ 14 1023.0 BEAUFORT LAB 1548 83 81 70/ 8/ 12 1022.7 30 SE NEW RVR IN NOT AVBL 30 SE NEW RVR IN 1543 83 N/A 2/ 8 27 SE WRIGHTSVLE NOT AVBL 5 SE WRIGHTSVLE 1508 81 83 90/ 10/ 14 1022.9 225 S CAPE HAT 1550 83 85 110/ 8/ 10 1022.8 3/ 8 3/ 8 41 SE CHARLESTON 1600 83 85 40/ 8/ 8 1021.8 $$

USA.gov is the U.S. government's official web portal to all federal, state and local government web resources and services.